Time,TemperatureF,DewpointF,PressureIn,WindDirection,WindDirectionDegrees,WindSpeedMPH,WindSpeedGustMPH,Humidity,HourlyPrecipIn,Conditions,Clouds,dailyrainin,SolarRadiationWatts/m^2,SoftwareType,DateUTC
2013-10-07 00:01:00,59.9,57.0,30.01,South,187,0.0,-999.9,90,-99.99,,,0.25,0.0,meteohub,2013-10-07 04:01:00,
2013-10-07 00:02:00,59.9,57.0,30.01,ESE,103,2.0,-999.9,90,-99.99,,,0.25,0.0,meteohub,2013-10-07 04:02:00,
2013-10-07 00:03:00,60.1,57.2,30.01,ESE,103,0.0,-999.9,90,-99.99,,,0.25,0.0,meteohub,2013-10-07 04:03:00,
2013-10-07 00:05:00,59.9,57.0,30.00,ESE,108,0.0,-999.9,90,-99.99,,,0.25,0.0,meteohub,2013-10-07 04:05:00,
2013-10-07 00:06:00,59.9,57.0,30.00,ESE,108,0.0,-999.9,90,-99.99,,,0.25,0.0,meteohub,2013-10-07 04:06:00,
2013-10-07 00:11:00,59.9,57.0,30.00,NNE,15,0.0,-999.9,90,-99.99,,,0.25,0.0,meteohub,2013-10-07 04:11:00,
2013-10-07 00:17:00,60.1,57.2,30.00,West,271,0.0,0.0,90,-99.99,,,0.10,0.0,meteohub,2013-10-07 04:17:00,
2013-10-07 00:22:00,60.1,57.2,30.00,West,269,1.0,1.0,90,0.00,,,0.10,0.0,meteohub,2013-10-07 04:22:00,
2013-10-07 00:27:00,60.1,57.2,30.00,West,269,0.0,1.0,90,0.00,,,0.10,0.0,meteohub,2013-10-07 04:27:00,
2013-10-07 00:32:00,60.1,57.2,30.00,West,265,0.0,1.0,90,0.00,,,0.10,0.0,meteohub,2013-10-07 04:32:00,
2013-10-07 00:37:00,60.1,57.2,30.00,West,265,0.0,1.0,90,0.00,,,0.10,0.0,meteohub,2013-10-07 04:37:00,
2013-10-07 00:42:00,60.1,57.2,30.00,West,265,0.0,1.0,90,0.00,,,0.10,0.0,meteohub,2013-10-07 04:42:00,
2013-10-07 00:47:00,60.1,57.2,30.00,West,263,0.0,1.0,90,0.00,,,0.10,0.0,meteohub,2013-10-07 04:47:00,
2013-10-07 00:52:00,60.1,57.2,30.00,SW,230,2.0,4.0,90,0.00,,,0.10,0.0,meteohub,2013-10-07 04:52:00,
2013-10-07 00:57:00,60.1,57.2,30.00,SE,124,0.0,9.0,90,0.00,,,0.10,0.0,meteohub,2013-10-07 04:57:00,
2013-10-07 01:02:00,60.1,57.2,30.00,South,173,0.0,9.0,90,0.00,,,0.10,0.0,meteohub,2013-10-07 05:02:00,
2013-10-07 01:07:00,60.1,57.2,29.99,South,173,0.0,9.0,90,0.00,,,0.10,0.0,meteohub,2013-10-07 05:07:00,
2013-10-07 01:12:00,60.3,57.6,29.99,South,179,0.0,4.0,91,0.00,,,0.10,0.0,meteohub,2013-10-07 05:12:00,
2013-10-07 01:17:00,60.3,57.6,29.99,SSE,156,1.0,4.0,91,0.00,,,0.10,0.0,meteohub,2013-10-07 05:17:00,
2013-10-07 01:22:00,60.3,57.6,29.99,South,184,2.0,4.0,91,0.00,,,0.10,0.0,meteohub,2013-10-07 05:22:00,
2013-10-07 01:27:00,60.3,57.6,29.99,SSE,147,0.0,6.0,91,0.00,,,0.10,0.0,meteohub,2013-10-07 05:27:00,
2013-10-07 01:32:00,60.3,57.6,29.98,SE,133,0.0,6.0,91,0.00,,,0.10,0.0,meteohub,2013-10-07 05:32:00,
2013-10-07 01:37:00,60.3,57.6,29.99,SE,134,0.0,6.0,91,0.00,,,0.10,0.0,meteohub,2013-10-07 05:37:00,
2013-10-07 01:42:00,60.3,57.6,29.99,SE,144,0.0,3.0,91,0.00,,,0.10,0.0,meteohub,2013-10-07 05:42:00,
2013-10-07 01:47:00,60.4,57.7,29.99,ESE,103,0.0,3.0,91,0.00,,,0.10,0.0,meteohub,2013-10-07 05:47:00,
2013-10-07 01:52:00,60.4,58.1,29.98,SE,131,0.0,7.0,92,0.00,,,0.10,0.0,meteohub,2013-10-07 05:52:00,
2013-10-07 01:57:00,60.4,57.7,29.98,NNW,340,0.0,7.0,91,0.00,,,0.10,0.0,meteohub,2013-10-07 05:57:00,
2013-10-07 02:02:00,60.4,58.1,29.98,ENE,59,1.0,7.0,92,0.00,,,0.10,0.0,meteohub,2013-10-07 06:02:00,
2013-10-07 02:07:00,60.4,58.1,29.98,SW,214,0.0,4.0,92,0.00,,,0.10,0.0,meteohub,2013-10-07 06:07:00,
2013-10-07 02:12:00,60.4,58.1,29.98,SSW,205,5.0,-999.9,92,0.00,,,0.10,0.0,meteohub,2013-10-07 06:12:00,
2013-10-07 02:17:00,60.4,58.1,29.97,ESE,117,0.0,-999.9,92,0.00,,,0.10,0.0,meteohub,2013-10-07 06:17:00,
2013-10-07 02:22:00,60.4,58.1,29.97,South,180,2.0,-999.9,92,0.00,,,0.10,0.0,meteohub,2013-10-07 06:22:00,
2013-10-07 02:27:00,60.4,58.1,29.97,SSE,161,0.0,-999.9,92,0.00,,,0.10,0.0,meteohub,2013-10-07 06:27:00,
2013-10-07 02:32:00,60.4,58.1,29.96,East,97,0.0,-999.9,92,0.00,,,0.10,0.0,meteohub,2013-10-07 06:32:00,
2013-10-07 02:37:00,60.4,58.1,29.96,East,99,0.0,-999.9,92,0.00,,,0.10,0.0,meteohub,2013-10-07 06:37:00,
2013-10-07 02:42:00,60.4,58.5,29.96,East,98,0.0,-999.9,93,0.00,,,0.10,0.0,meteohub,2013-10-07 06:42:00,
2013-10-07 02:47:00,60.4,58.5,29.96,East,98,0.0,-999.9,93,0.00,,,0.10,0.0,meteohub,2013-10-07 06:47:00,
2013-10-07 02:52:00,60.4,58.5,29.96,SSW,197,0.0,-999.9,93,0.00,,,0.10,0.0,meteohub,2013-10-07 06:52:00,
2013-10-07 02:57:00,60.4,58.5,29.96,WSW,254,0.0,-999.9,93,-99.99,,,0.10,0.0,meteohub,2013-10-07 06:57:00,
2013-10-07 03:02:00,60.4,58.5,29.96,ESE,109,0.0,-999.9,93,-99.99,,,0.10,0.0,meteohub,2013-10-07 07:02:00,
2013-10-07 03:07:00,60.4,58.5,29.96,ESE,109,0.0,-999.9,93,-99.99,,,0.10,0.0,meteohub,2013-10-07 07:07:00,
2013-10-07 03:12:00,60.6,58.6,29.96,ESE,109,0.0,-999.9,93,-99.99,,,0.10,0.0,meteohub,2013-10-07 07:12:00,
2013-10-07 03:17:00,60.6,58.6,29.95,ESE,109,0.0,-999.9,93,-99.99,,,0.10,0.0,meteohub,2013-10-07 07:17:00,
2013-10-07 03:22:00,60.6,58.6,29.95,ESE,109,0.0,-999.9,93,-99.99,,,0.10,0.0,meteohub,2013-10-07 07:22:00,
2013-10-07 03:27:00,60.6,58.6,29.95,SSW,211,0.0,-999.9,93,-99.99,,,0.10,0.0,meteohub,2013-10-07 07:27:00,
2013-10-07 03:32:00,60.6,58.6,29.94,SSW,211,0.0,-999.9,93,-99.99,,,0.10,0.0,meteohub,2013-10-07 07:32:00,
2013-10-07 03:37:00,60.6,58.6,29.94,South,184,0.0,-999.9,93,-99.99,,,0.10,0.0,meteohub,2013-10-07 07:37:00,
2013-10-07 03:42:00,60.8,58.8,29.94,South,184,0.0,-999.9,93,-99.99,,,0.10,0.0,meteohub,2013-10-07 07:42:00,
2013-10-07 03:47:00,60.8,58.8,29.93,South,169,0.0,-999.9,93,-99.99,,,0.10,0.0,meteohub,2013-10-07 07:47:00,
2013-10-07 03:52:00,60.8,58.8,29.93,South,169,1.0,-999.9,93,-99.99,,,0.10,0.0,meteohub,2013-10-07 07:52:00,
2013-10-07 03:57:00,61.0,59.0,29.93,South,169,0.0,-999.9,93,-99.99,,,0.10,0.0,meteohub,2013-10-07 07:57:00,
2013-10-07 04:02:00,61.0,59.0,29.93,SSW,199,0.0,-999.9,93,-99.99,,,0.10,0.0,meteohub,2013-10-07 08:02:00,
2013-10-07 04:07:00,61.0,59.0,29.93,SSW,198,0.0,-999.9,93,-99.99,,,0.10,0.0,meteohub,2013-10-07 08:07:00,
2013-10-07 04:12:00,61.2,59.2,29.93,ENE,76,0.0,-999.9,93,-99.99,,,0.10,0.0,meteohub,2013-10-07 08:12:00,
2013-10-07 04:17:00,61.2,59.2,29.93,SSW,198,0.0,-999.9,93,-99.99,,,0.10,0.0,meteohub,2013-10-07 08:17:00,
2013-10-07 04:22:00,61.3,59.5,29.93,ENE,74,1.0,-999.9,94,-99.99,,,0.10,0.0,meteohub,2013-10-07 08:22:00,
2013-10-07 04:27:00,61.3,59.5,29.93,East,101,0.0,-999.9,94,-99.99,,,0.10,0.0,meteohub,2013-10-07 08:27:00,
2013-10-07 04:32:00,61.5,59.7,29.93,SE,132,0.0,-999.9,94,-99.99,,,0.10,0.0,meteohub,2013-10-07 08:32:00,
2013-10-07 04:37:00,61.5,59.7,29.92,SE,132,0.0,-999.9,94,-99.99,,,0.10,0.0,meteohub,2013-10-07 08:37:00,
2013-10-07 04:42:00,61.7,59.9,29.92,SE,131,0.0,-999.9,94,-99.99,,,0.10,0.0,meteohub,2013-10-07 08:42:00,
2013-10-07 04:47:00,61.9,60.1,29.92,SSW,194,0.0,-999.9,94,-99.99,,,0.10,0.0,meteohub,2013-10-07 08:47:00,
2013-10-07 04:52:00,61.9,60.1,29.92,SE,134,0.0,-999.9,94,-99.99,,,0.10,0.0,meteohub,2013-10-07 08:52:00,
2013-10-07 04:57:00,61.9,60.1,29.92,South,187,0.0,-999.9,94,-99.99,,,0.10,0.0,meteohub,2013-10-07 08:57:00,
2013-10-07 05:02:00,62.1,60.3,29.92,South,187,0.0,-999.9,94,-99.99,,,0.10,0.0,meteohub,2013-10-07 09:02:00,
2013-10-07 05:07:00,62.1,60.3,29.91,SSW,193,0.0,-999.9,94,-99.99,,,0.10,0.0,meteohub,2013-10-07 09:07:00,
2013-10-07 05:12:00,62.1,60.3,29.91,SE,136,0.0,-999.9,94,-99.99,,,0.10,0.0,meteohub,2013-10-07 09:12:00,
2013-10-07 05:17:00,62.1,60.3,29.91,SE,137,0.0,-999.9,94,-99.99,,,0.10,0.0,meteohub,2013-10-07 09:17:00,
2013-10-07 05:22:00,62.1,60.3,29.91,SW,231,3.0,-999.9,94,-99.99,,,0.10,0.0,meteohub,2013-10-07 09:22:00,
2013-10-07 05:27:00,62.1,60.3,29.90,South,185,3.0,-999.9,94,-99.99,,,0.10,0.0,meteohub,2013-10-07 09:27:00,
2013-10-07 05:32:00,62.2,60.4,29.90,SSW,194,0.0,-999.9,94,-99.99,,,0.10,0.0,meteohub,2013-10-07 09:32:00,
2013-10-07 05:37:00,62.2,60.4,29.90,SE,129,0.0,-999.9,94,-99.99,,,0.10,0.0,meteohub,2013-10-07 09:37:00,
2013-10-07 05:42:00,62.2,60.3,29.90,West,268,0.0,-999.9,93,-99.99,,,0.10,0.0,meteohub,2013-10-07 09:42:00,
2013-10-07 05:47:00,62.4,60.4,29.90,NW,312,0.0,-999.9,93,-99.99,,,0.10,0.0,meteohub,2013-10-07 09:47:00,
2013-10-07 05:52:00,62.4,60.4,29.90,NNW,338,0.0,-999.9,93,-99.99,,,0.10,0.0,meteohub,2013-10-07 09:52:00,
2013-10-07 05:57:00,62.4,60.4,29.90,NW,306,0.0,-999.9,93,-99.99,,,0.10,0.0,meteohub,2013-10-07 09:57:00,
2013-10-07 06:02:00,62.6,60.8,29.90,South,169,0.0,-999.9,94,-99.99,,,0.10,0.0,meteohub,2013-10-07 10:02:00,
2013-10-07 06:07:00,62.8,61.0,29.90,NE,46,0.0,-999.9,94,-99.99,,,0.10,0.0,meteohub,2013-10-07 10:07:00,
2013-10-07 06:12:00,62.8,61.0,29.90,NE,46,0.0,-999.9,94,-99.99,,,0.10,0.0,meteohub,2013-10-07 10:12:00,
2013-10-07 06:17:00,62.8,61.0,29.89,NE,46,0.0,-999.9,94,-99.99,,,0.10,0.0,meteohub,2013-10-07 10:17:00,
2013-10-07 06:22:00,63.0,61.2,29.89,NE,46,0.0,-999.9,94,-99.99,,,0.26,0.0,meteohub,2013-10-07 10:22:00,
2013-10-07 06:27:00,63.0,61.2,29.89,NE,46,0.0,-999.9,94,-99.99,,,0.26,0.0,meteohub,2013-10-07 10:27:00,
2013-10-07 06:32:00,63.0,61.2,29.89,NE,46,0.0,-999.9,94,-99.99,,,0.26,0.0,meteohub,2013-10-07 10:32:00,
2013-10-07 06:37:00,63.0,61.0,29.89,NE,46,0.0,-999.9,93,-99.99,,,0.10,0.0,meteohub,2013-10-07 10:37:00,
2013-10-07 06:43:00,63.0,61.0,29.89,NE,53,0.0,-999.9,93,-99.99,,,0.10,0.0,meteohub,2013-10-07 10:43:00,
2013-10-07 06:48:00,63.0,61.0,29.88,NE,53,0.0,-999.9,93,-99.99,,,0.10,0.0,meteohub,2013-10-07 10:48:00,
2013-10-07 06:53:00,63.0,61.0,29.88,NE,53,0.0,-999.9,93,-99.99,,,0.10,0.0,meteohub,2013-10-07 10:53:00,
2013-10-07 06:58:00,63.0,61.0,29.88,NE,53,0.0,-999.9,93,-99.99,,,0.10,0.0,meteohub,2013-10-07 10:58:00,
2013-10-07 07:04:00,63.1,61.2,29.89,ESE,110,0.0,-999.9,93,-99.99,,,0.10,7.0,meteohub,2013-10-07 11:04:00,
2013-10-07 07:09:00,63.1,61.2,29.89,WNW,290,0.0,-999.9,93,-99.99,,,0.10,11.0,meteohub,2013-10-07 11:09:00,
2013-10-07 07:14:00,63.3,61.5,29.88,South,186,0.0,-999.9,94,-99.99,,,0.10,12.0,meteohub,2013-10-07 11:14:00,
2013-10-07 07:20:00,63.3,61.5,29.88,WNW,298,0.0,-999.9,94,-99.99,,,0.10,14.0,meteohub,2013-10-07 11:20:00,
2013-10-07 07:25:00,63.7,61.9,29.88,SE,140,0.0,-999.9,94,-99.99,,,0.26,18.0,meteohub,2013-10-07 11:25:00,
2013-10-07 07:30:00,63.7,61.9,29.88,SE,144,0.0,-999.9,94,-99.99,,,0.10,21.0,meteohub,2013-10-07 11:30:00,
2013-10-07 07:35:00,63.9,62.1,29.88,NE,48,0.0,-999.9,94,-99.99,,,0.10,25.0,meteohub,2013-10-07 11:35:00,
2013-10-07 07:41:00,64.0,62.2,29.88,NE,48,1.0,-999.9,94,-99.99,,,0.26,21.0,meteohub,2013-10-07 11:41:00,
2013-10-07 07:46:00,64.2,62.4,29.88,South,190,0.0,-999.9,94,-99.99,,,0.10,21.0,meteohub,2013-10-07 11:46:00,
2013-10-07 07:51:00,64.4,62.6,29.88,SE,132,0.0,-999.9,94,-99.99,,,0.10,26.0,meteohub,2013-10-07 11:51:00,
2013-10-07 07:56:00,64.6,62.8,29.88,SE,134,0.0,-999.9,94,-99.99,,,0.26,39.0,meteohub,2013-10-07 11:56:00,
2013-10-07 08:02:00,64.8,63.0,29.88,SSE,165,0.0,-999.9,94,-99.99,,,0.10,33.0,meteohub,2013-10-07 12:02:00,
2013-10-07 08:07:00,64.9,63.1,29.88,SE,140,0.0,-999.9,94,-99.99,,,0.10,33.0,meteohub,2013-10-07 12:07:00,
2013-10-07 08:12:00,65.1,63.3,29.87,SE,126,0.0,-999.9,94,-99.99,,,0.26,37.0,meteohub,2013-10-07 12:12:00,
2013-10-07 08:17:00,65.3,63.5,29.87,East,90,0.0,-999.9,94,-99.99,,,0.10,40.0,meteohub,2013-10-07 12:17:00,
2013-10-07 08:22:00,65.7,63.9,29.87,SW,236,0.0,-999.9,94,-99.99,,,0.10,69.0,meteohub,2013-10-07 12:22:00,
2013-10-07 08:28:00,65.8,64.0,29.87,SSW,198,0.0,-999.9,94,-99.99,,,0.10,98.0,meteohub,2013-10-07 12:28:00,
2013-10-07 08:33:00,66.2,64.4,29.87,SE,128,0.0,-999.9,94,-99.99,,,0.10,79.0,meteohub,2013-10-07 12:33:00,
2013-10-07 08:38:00,66.6,64.4,29.87,East,99,1.0,-999.9,93,-99.99,,,0.26,90.0,meteohub,2013-10-07 12:38:00,
2013-10-07 08:43:00,66.7,64.6,29.87,SSE,161,0.0,-999.9,93,-99.99,,,0.26,72.0,meteohub,2013-10-07 12:43:00,
2013-10-07 08:49:00,66.9,64.8,29.86,SW,215,2.0,-999.9,93,-99.99,,,0.10,91.0,meteohub,2013-10-07 12:49:00,
2013-10-07 08:54:00,67.1,64.9,29.86,ESE,110,0.0,-999.9,93,-99.99,,,0.10,123.0,meteohub,2013-10-07 12:54:00,
2013-10-07 08:59:00,67.5,65.3,29.86,ESE,121,3.0,-999.9,93,-99.99,,,0.10,127.0,meteohub,2013-10-07 12:59:00,
2013-10-07 09:05:00,67.6,65.3,29.86,South,188,2.0,-999.9,92,-99.99,,,0.10,163.0,meteohub,2013-10-07 13:05:00,
2013-10-07 09:10:00,67.8,65.5,29.86,SSE,168,1.0,-999.9,92,-99.99,,,0.10,165.0,meteohub,2013-10-07 13:10:00,
2013-10-07 09:15:00,68.4,66.0,29.85,SSE,163,1.0,-999.9,92,-99.99,,,0.10,146.0,meteohub,2013-10-07 13:15:00,
2013-10-07 09:20:00,68.5,65.8,29.85,SSE,150,0.0,-999.9,91,-99.99,,,0.10,172.0,meteohub,2013-10-07 13:20:00,
2013-10-07 09:26:00,68.7,66.0,29.84,East,101,2.0,-999.9,91,-99.99,,,0.26,93.0,meteohub,2013-10-07 13:26:00,
2013-10-07 09:31:00,68.9,65.8,29.84,WSW,245,0.0,-999.9,90,-99.99,,,0.26,84.0,meteohub,2013-10-07 13:31:00,
2013-10-07 09:36:00,69.1,66.0,29.84,ESE,102,0.0,-999.9,90,-99.99,,,0.26,86.0,meteohub,2013-10-07 13:36:00,
2013-10-07 09:41:00,69.1,65.7,29.84,South,189,0.0,-999.9,89,-99.99,,,0.26,70.0,meteohub,2013-10-07 13:41:00,
2013-10-07 09:47:00,69.1,65.7,29.83,SSE,167,0.0,-999.9,89,-99.99,,,0.26,81.0,meteohub,2013-10-07 13:47:00,
2013-10-07 09:52:00,69.3,65.8,29.83,SSE,166,0.0,-999.9,89,-99.99,,,0.10,128.0,meteohub,2013-10-07 13:52:00,
2013-10-07 09:57:00,69.3,65.8,29.83,South,175,2.0,-999.9,89,-99.99,,,0.00,86.0,meteohub,2013-10-07 13:57:00,
2013-10-07 10:02:00,69.4,65.7,29.82,South,189,0.0,-999.9,88,-99.99,,,0.00,91.0,meteohub,2013-10-07 14:02:00,
2013-10-07 10:07:00,69.6,65.8,29.82,SE,144,0.0,-999.9,88,-99.99,,,0.00,98.0,meteohub,2013-10-07 14:07:00,
2013-10-07 10:12:00,69.6,65.8,29.81,ESE,103,1.0,-999.9,88,-99.99,,,0.00,118.0,meteohub,2013-10-07 14:12:00,
2013-10-07 10:17:00,70.0,66.0,29.81,ESE,114,0.0,-999.9,87,-99.99,,,0.00,186.0,meteohub,2013-10-07 14:17:00,
2013-10-07 10:22:00,70.3,66.6,29.81,NNE,22,2.0,-999.9,88,-99.99,,,0.00,141.0,meteohub,2013-10-07 14:22:00,
2013-10-07 10:27:00,70.3,66.2,29.81,South,173,0.0,-999.9,87,-99.99,,,0.00,105.0,meteohub,2013-10-07 14:27:00,
2013-10-07 10:32:00,70.5,66.2,29.81,SE,124,0.0,-999.9,86,-99.99,,,0.00,33.0,meteohub,2013-10-07 14:32:00,
2013-10-07 10:37:00,70.7,66.4,29.81,SSW,210,1.0,-999.9,86,-99.99,,,0.00,74.0,meteohub,2013-10-07 14:37:00,
2013-10-07 10:42:00,70.9,66.6,29.80,South,189,0.0,-999.9,86,-99.99,,,0.00,151.0,meteohub,2013-10-07 14:42:00,
2013-10-07 10:48:00,71.1,66.4,29.80,SSW,198,1.0,-999.9,85,-99.99,,,0.00,163.0,meteohub,2013-10-07 14:48:00,
2013-10-07 10:53:00,71.4,66.7,29.79,SSW,205,0.0,-999.9,85,-99.99,,,0.00,169.0,meteohub,2013-10-07 14:53:00,
2013-10-07 10:58:00,71.8,67.1,29.79,East,82,1.0,-999.9,85,-99.99,,,0.26,251.0,meteohub,2013-10-07 14:58:00,
2013-10-07 11:03:00,72.1,67.1,29.79,ENE,78,0.0,-999.9,84,-99.99,,,0.00,146.0,meteohub,2013-10-07 15:03:00,
2013-10-07 11:09:00,72.3,66.9,29.78,SSE,165,0.0,-999.9,83,-99.99,,,0.26,144.0,meteohub,2013-10-07 15:09:00,
2013-10-07 11:14:00,72.5,66.7,29.78,SE,135,0.0,-999.9,82,-99.99,,,0.00,162.0,meteohub,2013-10-07 15:14:00,
2013-10-07 11:19:00,72.5,66.7,29.78,WSW,238,0.0,-999.9,82,-99.99,,,0.00,127.0,meteohub,2013-10-07 15:19:00,
2013-10-07 11:24:00,72.7,66.9,29.78,SW,217,0.0,-999.9,82,-99.99,,,0.26,114.0,meteohub,2013-10-07 15:24:00,
2013-10-07 11:30:00,72.7,66.9,29.78,SE,128,0.0,-999.9,82,-99.99,,,0.00,155.0,meteohub,2013-10-07 15:30:00,
2013-10-07 11:35:00,72.9,66.7,29.77,WNW,298,0.0,-999.9,81,-99.99,,,0.00,81.0,meteohub,2013-10-07 15:35:00,
2013-10-07 11:40:00,73.0,66.9,29.77,SW,217,1.0,-999.9,81,-99.99,,,0.00,232.0,meteohub,2013-10-07 15:40:00,
2013-10-07 11:46:00,73.2,67.5,29.76,South,171,1.0,-999.9,82,-99.99,,,0.00,148.0,meteohub,2013-10-07 15:46:00,
2013-10-07 11:51:00,73.4,67.3,29.76,WNW,296,4.0,-999.9,81,-99.99,,,0.00,97.0,meteohub,2013-10-07 15:51:00,
2013-10-07 11:56:00,73.6,67.1,29.76,ESE,118,1.0,-999.9,80,-99.99,,,0.26,355.0,meteohub,2013-10-07 15:56:00,
2013-10-07 12:01:00,73.9,67.8,29.75,WSW,257,4.0,-999.9,81,-99.99,,,0.26,359.0,meteohub,2013-10-07 16:01:00,
2013-10-07 12:07:00,74.8,68.9,29.75,SSW,200,6.0,-999.9,82,-99.99,,,0.00,612.0,meteohub,2013-10-07 16:07:00,
2013-10-07 12:12:00,75.4,68.0,29.74,West,264,0.0,-999.9,78,-99.99,,,0.26,330.0,meteohub,2013-10-07 16:12:00,
2013-10-07 12:17:00,75.6,67.8,29.74,SSW,195,2.0,-999.9,77,-99.99,,,0.00,185.0,meteohub,2013-10-07 16:17:00,
2013-10-07 12:22:00,75.4,67.6,29.74,South,178,0.0,-999.9,77,-99.99,,,0.00,195.0,meteohub,2013-10-07 16:22:00,
2013-10-07 12:27:00,75.2,67.5,29.73,SW,225,0.0,-999.9,77,-99.99,,,0.00,84.0,meteohub,2013-10-07 16:27:00,
2013-10-07 12:32:00,74.8,67.1,29.73,SW,225,8.0,-999.9,77,-99.99,,,0.00,220.0,meteohub,2013-10-07 16:32:00,
2013-10-07 12:37:00,74.8,67.5,29.72,WNW,289,0.0,-999.9,78,-99.99,,,0.00,163.0,meteohub,2013-10-07 16:37:00,
2013-10-07 12:42:00,74.5,67.1,29.71,SW,220,1.0,-999.9,78,-99.99,,,0.00,146.0,meteohub,2013-10-07 16:42:00,
2013-10-07 12:47:00,74.1,67.1,29.70,SSW,192,1.0,-999.9,79,-99.99,,,0.00,121.0,meteohub,2013-10-07 16:47:00,
2013-10-07 12:52:00,73.8,66.9,29.70,WNW,288,0.0,-999.9,79,-99.99,,,0.00,204.0,meteohub,2013-10-07 16:52:00,
2013-10-07 12:57:00,73.8,67.3,29.69,South,189,3.0,-999.9,80,-99.99,,,0.00,336.0,meteohub,2013-10-07 16:57:00,
2013-10-07 13:02:00,73.9,67.8,29.69,NE,47,2.0,-999.9,81,-99.99,,,0.00,178.0,meteohub,2013-10-07 17:02:00,
2013-10-07 13:07:00,73.8,67.6,29.69,SSW,213,6.0,-999.9,81,-99.99,,,0.00,213.0,meteohub,2013-10-07 17:07:00,
2013-10-07 13:12:00,73.9,67.5,29.68,NE,36,0.0,-999.9,80,-99.99,,,0.26,158.0,meteohub,2013-10-07 17:12:00,
2013-10-07 13:17:00,73.9,67.5,29.67,East,92,5.0,-999.9,80,-99.99,,,0.00,139.0,meteohub,2013-10-07 17:17:00,
2013-10-07 13:22:00,73.9,67.5,29.67,South,185,5.0,-999.9,80,-99.99,,,0.00,76.0,meteohub,2013-10-07 17:22:00,
2013-10-07 13:28:00,73.4,67.3,29.68,South,177,0.0,-999.9,81,-99.99,,,0.00,76.0,meteohub,2013-10-07 17:28:00,
2013-10-07 13:33:00,72.9,67.5,29.68,SW,215,1.0,-999.9,83,-99.99,,,0.00,60.0,meteohub,2013-10-07 17:33:00,
2013-10-07 13:38:00,72.1,67.5,29.67,ENE,69,0.0,-999.9,85,-99.99,,,0.00,56.0,meteohub,2013-10-07 17:38:00,
2013-10-07 13:43:00,71.6,67.1,29.66,SE,132,0.0,-999.9,86,-99.99,,,0.00,83.0,meteohub,2013-10-07 17:43:00,
2013-10-07 13:49:00,71.1,67.3,29.66,SE,138,1.0,-999.9,88,-99.99,,,0.00,60.0,meteohub,2013-10-07 17:49:00,
2013-10-07 13:54:00,70.9,67.1,29.66,SSW,198,1.0,-999.9,88,-99.99,,,0.00,95.0,meteohub,2013-10-07 17:54:00,
2013-10-07 13:59:00,70.5,67.1,29.65,South,188,2.0,-999.9,89,-99.99,,,0.26,86.0,meteohub,2013-10-07 17:59:00,
2013-10-07 14:04:00,70.2,67.1,29.65,NNW,333,2.0,-999.9,90,-99.99,,,0.00,42.0,meteohub,2013-10-07 18:04:00,
2013-10-07 14:10:00,70.0,66.9,29.64,ESE,111,1.0,-999.9,90,-99.99,,,0.26,88.0,meteohub,2013-10-07 18:10:00,
2013-10-07 14:15:00,69.8,67.1,29.63,ESE,102,0.0,-999.9,91,-99.99,,,0.00,172.0,meteohub,2013-10-07 18:15:00,
2013-10-07 14:20:00,69.8,67.1,29.64,East,96,0.0,-999.9,91,-99.99,,,0.00,47.0,meteohub,2013-10-07 18:20:00,
2013-10-07 14:25:00,69.6,66.9,29.64,NNW,327,1.0,-999.9,91,-99.99,,,0.00,40.0,meteohub,2013-10-07 18:25:00,
2013-10-07 14:31:00,69.6,67.3,29.63,SE,135,3.0,-999.9,92,-99.99,,,0.00,46.0,meteohub,2013-10-07 18:31:00,
2013-10-07 14:36:00,69.6,67.3,29.62,SSE,161,2.0,-999.9,92,-99.99,,,0.00,62.0,meteohub,2013-10-07 18:36:00,
2013-10-07 14:41:00,69.6,67.3,29.63,ESE,123,5.0,-999.9,92,-99.99,,,0.00,62.0,meteohub,2013-10-07 18:41:00,
2013-10-07 14:46:00,70.0,67.5,29.62,NW,317,1.0,-999.9,92,-99.99,,,0.00,47.0,meteohub,2013-10-07 18:46:00,
2013-10-07 14:52:00,70.0,67.5,29.62,WSW,255,1.0,-999.9,92,-99.99,,,0.00,14.0,meteohub,2013-10-07 18:52:00,
2013-10-07 14:57:00,70.2,67.6,29.63,NNW,346,2.0,-999.9,92,-99.99,,,0.00,7.0,meteohub,2013-10-07 18:57:00,
2013-10-07 15:02:00,70.2,67.6,29.66,WNW,300,5.0,-999.9,92,-99.99,,,0.26,0.0,meteohub,2013-10-07 19:02:00,
2013-10-07 15:07:00,69.3,66.2,29.67,West,278,3.0,-999.9,90,-99.99,,,0.26,7.0,meteohub,2013-10-07 19:07:00,
2013-10-07 15:12:00,68.2,65.1,29.67,West,267,9.0,-999.9,90,-99.99,,,0.00,7.0,meteohub,2013-10-07 19:12:00,
2013-10-07 15:17:00,67.3,64.2,29.67,WSW,248,5.0,-999.9,90,-99.99,,,0.26,7.0,meteohub,2013-10-07 19:17:00,
2013-10-07 15:22:00,66.4,63.7,29.69,WSW,242,0.0,-999.9,91,-99.99,,,0.26,0.0,meteohub,2013-10-07 19:22:00,
2013-10-07 15:27:00,66.0,63.3,29.67,NW,306,7.0,-999.9,91,-99.99,,,0.00,0.0,meteohub,2013-10-07 19:27:00,
2013-10-07 15:32:00,65.8,63.5,29.67,WSW,238,0.0,-999.9,92,-99.99,,,0.26,5.0,meteohub,2013-10-07 19:32:00,
2013-10-07 15:37:00,65.7,63.3,29.69,SW,220,0.0,-999.9,92,-99.99,,,0.00,5.0,meteohub,2013-10-07 19:37:00,
2013-10-07 15:42:00,65.5,63.1,29.69,South,186,1.0,-999.9,92,-99.99,,,0.00,5.0,meteohub,2013-10-07 19:42:00,
2013-10-07 15:47:00,64.9,61.9,29.70,NW,304,2.0,-999.9,90,-99.99,,,0.00,5.0,meteohub,2013-10-07 19:47:00,
2013-10-07 15:52:00,63.1,60.1,29.69,WSW,255,9.0,-999.9,90,-99.99,,,0.00,81.0,meteohub,2013-10-07 19:52:00,
2013-10-07 15:57:00,62.4,59.4,29.69,SW,236,0.0,-999.9,90,-99.99,,,0.00,76.0,meteohub,2013-10-07 19:57:00,
2013-10-07 16:02:00,62.2,59.5,29.69,West,265,0.0,-999.9,91,-99.99,,,0.00,37.0,meteohub,2013-10-07 20:02:00,
2013-10-07 16:07:00,62.2,59.5,29.70,NE,44,0.0,-999.9,91,-99.99,,,0.00,53.0,meteohub,2013-10-07 20:07:00,
2013-10-07 16:12:00,62.1,59.4,29.71,WNW,293,1.0,-999.9,91,-99.99,,,0.00,40.0,meteohub,2013-10-07 20:12:00,
2013-10-07 16:17:00,62.1,59.4,29.73,SW,223,0.0,-999.9,91,-99.99,,,0.00,32.0,meteohub,2013-10-07 20:17:00,
2013-10-07 16:22:00,62.1,59.7,29.73,SW,223,0.0,-999.9,92,-99.99,,,0.00,53.0,meteohub,2013-10-07 20:22:00,
2013-10-07 16:27:00,62.1,59.7,29.74,SW,223,0.0,-999.9,92,-99.99,,,0.00,28.0,meteohub,2013-10-07 20:27:00,
2013-10-07 16:32:00,62.1,59.7,29.75,SW,223,0.0,-999.9,92,-99.99,,,0.00,12.0,meteohub,2013-10-07 20:32:00,
2013-10-07 16:37:00,61.9,59.5,29.75,SW,223,0.0,-999.9,92,-99.99,,,0.00,23.0,meteohub,2013-10-07 20:37:00,
2013-10-07 16:42:00,61.9,59.5,29.75,SW,223,0.0,-999.9,92,-99.99,,,0.00,39.0,meteohub,2013-10-07 20:42:00,
2013-10-07 16:47:00,61.9,59.9,29.75,SW,223,0.0,-999.9,93,-99.99,,,0.26,12.0,meteohub,2013-10-07 20:47:00,
2013-10-07 16:52:00,61.9,59.9,29.75,West,269,1.0,-999.9,93,-99.99,,,0.00,11.0,meteohub,2013-10-07 20:52:00,
2013-10-07 16:57:00,61.5,59.2,29.76,NW,304,3.0,-999.9,92,-99.99,,,0.26,16.0,meteohub,2013-10-07 20:57:00,
2013-10-07 17:02:00,61.3,59.0,29.76,West,271,3.0,-999.9,92,-99.99,,,0.00,12.0,meteohub,2013-10-07 21:02:00,
2013-10-07 17:07:00,61.2,58.8,29.76,WNW,286,0.0,-999.9,92,-99.99,,,0.26,11.0,meteohub,2013-10-07 21:07:00,
2013-10-07 17:12:00,60.6,58.3,29.78,WNW,300,0.0,-999.9,92,-99.99,,,0.26,11.0,meteohub,2013-10-07 21:12:00,
2013-10-07 17:17:00,60.4,58.1,29.79,WNW,288,8.0,-999.9,92,-99.99,,,0.26,9.0,meteohub,2013-10-07 21:17:00,
2013-10-07 17:22:00,60.1,57.4,29.79,West,265,4.0,-999.9,91,-99.99,,,0.00,12.0,meteohub,2013-10-07 21:22:00,
2013-10-07 17:27:00,59.9,57.0,29.78,SW,227,9.0,-999.9,90,-99.99,,,0.26,11.0,meteohub,2013-10-07 21:27:00,
2013-10-07 17:32:00,59.7,56.5,29.78,West,275,16.0,-999.9,89,-99.99,,,0.00,11.0,meteohub,2013-10-07 21:32:00,
2013-10-07 17:37:00,59.5,55.9,29.79,WNW,290,2.0,-999.9,88,-99.99,,,0.00,5.0,meteohub,2013-10-07 21:37:00,
2013-10-07 17:42:00,59.4,55.4,29.79,NW,325,5.0,-999.9,87,-99.99,,,0.00,5.0,meteohub,2013-10-07 21:42:00,
2013-10-07 17:47:00,59.4,55.4,29.79,WSW,255,7.0,-999.9,87,-99.99,,,0.00,0.0,meteohub,2013-10-07 21:47:00,
2013-10-07 17:52:00,59.2,55.4,29.79,SW,235,6.0,-999.9,87,-99.99,,,0.00,0.0,meteohub,2013-10-07 21:52:00,
2013-10-07 17:57:00,59.0,55.2,29.79,NNW,345,1.0,-999.9,87,-99.99,,,0.00,0.0,meteohub,2013-10-07 21:57:00,
2013-10-07 18:02:00,59.0,54.9,29.79,WSW,237,3.0,-999.9,86,-99.99,,,0.00,0.0,meteohub,2013-10-07 22:02:00,
2013-10-07 18:07:00,59.0,54.9,29.81,WSW,249,5.0,-999.9,86,-99.99,,,0.00,0.0,meteohub,2013-10-07 22:07:00,
2013-10-07 18:12:00,58.8,54.7,29.81,WNW,285,7.0,-999.9,86,-99.99,,,0.00,0.0,meteohub,2013-10-07 22:12:00,
2013-10-07 18:17:00,58.6,54.9,29.81,WSW,243,3.0,-999.9,87,-99.99,,,0.00,18.0,meteohub,2013-10-07 22:17:00,
2013-10-07 18:22:00,58.5,54.7,29.81,WNW,289,1.0,-999.9,87,-99.99,,,0.26,11.0,meteohub,2013-10-07 22:22:00,
2013-10-07 18:28:00,58.3,54.5,29.82,West,261,2.0,-999.9,87,-99.99,,,0.00,0.0,meteohub,2013-10-07 22:28:00,
2013-10-07 18:33:00,58.3,54.5,29.82,WNW,294,5.0,-999.9,87,-99.99,,,0.00,0.0,meteohub,2013-10-07 22:33:00,
2013-10-07 18:38:00,58.3,54.5,29.82,WSW,257,1.0,-999.9,87,-99.99,,,0.26,0.0,meteohub,2013-10-07 22:38:00,
2013-10-07 18:44:00,58.3,54.5,29.83,WSW,252,3.0,-999.9,87,-99.99,,,0.00,0.0,meteohub,2013-10-07 22:44:00,
2013-10-07 18:49:00,58.3,54.1,29.83,WSW,257,1.0,-999.9,86,-99.99,,,0.00,0.0,meteohub,2013-10-07 22:49:00,
2013-10-07 18:54:00,58.3,54.1,29.83,West,268,5.0,-999.9,86,-99.99,,,0.00,0.0,meteohub,2013-10-07 22:54:00,
2013-10-07 18:59:00,58.5,54.3,29.85,West,265,0.0,-999.9,86,-99.99,,,0.00,0.0,meteohub,2013-10-07 22:59:00,
2013-10-07 19:05:00,58.5,54.0,29.85,West,281,0.0,-999.9,85,-99.99,,,0.00,0.0,meteohub,2013-10-07 23:05:00,
2013-10-07 19:10:00,58.5,54.3,29.85,WSW,242,0.0,-999.9,86,-99.99,,,0.00,0.0,meteohub,2013-10-07 23:10:00,
2013-10-07 19:15:00,58.5,54.3,29.86,WSW,242,0.0,-999.9,86,-99.99,,,0.00,0.0,meteohub,2013-10-07 23:15:00,
2013-10-07 19:21:00,58.5,54.7,29.86,WSW,242,0.0,-999.9,87,-99.99,,,0.00,0.0,meteohub,2013-10-07 23:21:00,
2013-10-07 19:26:00,58.5,54.7,29.86,WSW,242,0.0,-999.9,87,-99.99,,,0.26,0.0,meteohub,2013-10-07 23:26:00,
2013-10-07 19:31:00,58.5,54.7,29.86,WSW,242,0.0,-999.9,87,-99.99,,,0.00,0.0,meteohub,2013-10-07 23:31:00,
2013-10-07 19:36:00,58.3,54.7,29.86,WSW,242,0.0,-999.9,88,-99.99,,,0.26,0.0,meteohub,2013-10-07 23:36:00,
2013-10-07 19:42:00,58.1,54.5,29.86,WSW,242,0.0,-999.9,88,-99.99,,,0.26,0.0,meteohub,2013-10-07 23:42:00,
2013-10-07 19:47:00,57.9,54.7,29.87,WSW,242,0.0,-999.9,89,-99.99,,,0.00,0.0,meteohub,2013-10-07 23:47:00,
2013-10-07 19:52:00,57.9,54.7,29.86,WSW,242,0.0,-999.9,89,-99.99,,,0.00,0.0,meteohub,2013-10-07 23:52:00,
2013-10-07 19:57:00,57.7,54.5,29.86,SSW,211,0.0,-999.9,89,-99.99,,,0.00,0.0,meteohub,2013-10-07 23:57:00,
2013-10-07 20:02:00,57.7,54.9,29.87,SSW,211,0.0,-999.9,90,-99.99,,,0.00,0.0,meteohub,2013-10-08 00:02:00,
2013-10-07 20:07:00,57.6,54.7,29.87,SSW,211,0.0,-999.9,90,-99.99,,,0.00,0.0,meteohub,2013-10-08 00:07:00,
2013-10-07 20:12:00,57.6,54.7,29.87,SSW,211,0.0,-999.9,90,-99.99,,,0.00,0.0,meteohub,2013-10-08 00:12:00,
2013-10-07 20:17:00,57.4,54.5,29.87,SSW,211,0.0,-999.9,90,-99.99,,,0.00,0.0,meteohub,2013-10-08 00:17:00,
2013-10-07 20:23:00,57.4,54.5,29.87,ENE,70,0.0,-999.9,90,-99.99,,,0.00,0.0,meteohub,2013-10-08 00:23:00,
2013-10-07 20:28:00,57.0,54.1,29.87,ENE,72,0.0,-999.9,90,-99.99,,,0.00,0.0,meteohub,2013-10-08 00:28:00,
2013-10-07 20:33:00,56.8,54.3,29.87,ENE,72,0.0,-999.9,91,-99.99,,,0.00,0.0,meteohub,2013-10-08 00:33:00,
2013-10-07 20:38:00,56.7,54.1,29.88,ENE,72,0.0,-999.9,91,-99.99,,,0.00,0.0,meteohub,2013-10-08 00:38:00,
2013-10-07 20:44:00,56.5,54.0,29.87,ENE,72,0.0,-999.9,91,-99.99,,,0.00,0.0,meteohub,2013-10-08 00:44:00,
2013-10-07 20:49:00,56.3,53.8,29.88,ENE,72,0.0,-999.9,91,-99.99,,,0.00,0.0,meteohub,2013-10-08 00:49:00,
2013-10-07 20:54:00,56.1,53.8,29.88,ENE,72,0.0,-999.9,92,-99.99,,,0.00,0.0,meteohub,2013-10-08 00:54:00,
2013-10-07 20:59:00,55.9,53.6,29.88,ENE,72,0.0,-999.9,92,-99.99,,,0.00,0.0,meteohub,2013-10-08 00:59:00,
2013-10-07 21:05:00,55.8,53.4,29.88,ENE,72,0.0,-999.9,92,-99.99,,,0.00,0.0,meteohub,2013-10-08 01:05:00,
2013-10-07 21:10:00,55.8,53.4,29.89,ENE,72,0.0,-999.9,92,-99.99,,,0.00,0.0,meteohub,2013-10-08 01:10:00,
2013-10-07 21:15:00,55.6,53.2,29.89,ENE,72,0.0,-999.9,92,-99.99,,,0.00,0.0,meteohub,2013-10-08 01:15:00,
2013-10-07 21:20:00,55.4,53.1,29.89,ENE,72,0.0,-999.9,92,-99.99,,,0.00,0.0,meteohub,2013-10-08 01:20:00,
2013-10-07 21:26:00,55.4,53.1,29.89,ENE,71,0.0,-999.9,92,-99.99,,,0.00,0.0,meteohub,2013-10-08 01:26:00,
2013-10-07 21:31:00,55.2,52.9,29.89,ENE,70,0.0,-999.9,92,-99.99,,,0.26,0.0,meteohub,2013-10-08 01:31:00,
2013-10-07 21:36:00,55.2,52.9,29.89,South,186,0.0,-999.9,92,-99.99,,,0.00,0.0,meteohub,2013-10-08 01:36:00,
2013-10-07 21:42:00,55.0,53.1,29.89,South,186,0.0,-999.9,93,-99.99,,,0.00,0.0,meteohub,2013-10-08 01:42:00,
2013-10-07 21:47:00,55.0,53.1,29.89,South,186,0.0,-999.9,93,-99.99,,,0.00,0.0,meteohub,2013-10-08 01:47:00,
2013-10-07 21:52:00,55.0,53.1,29.89,South,186,0.0,-999.9,93,-99.99,,,0.00,0.0,meteohub,2013-10-08 01:52:00,
2013-10-07 21:57:00,55.0,53.1,29.90,South,186,0.0,-999.9,93,-99.99,,,0.00,0.0,meteohub,2013-10-08 01:57:00,
2013-10-07 22:02:00,54.9,52.9,29.90,South,186,0.0,-999.9,93,-99.99,,,0.00,0.0,meteohub,2013-10-08 02:02:00,
2013-10-07 22:07:00,54.9,52.9,29.91,South,186,0.0,-999.9,93,-99.99,,,0.00,0.0,meteohub,2013-10-08 02:07:00,
2013-10-07 22:12:00,54.7,52.7,29.91,SSW,204,0.0,-999.9,93,-99.99,,,0.00,0.0,meteohub,2013-10-08 02:12:00,
2013-10-07 22:17:00,54.7,52.7,29.91,SSW,204,0.0,-999.9,93,-99.99,,,0.00,0.0,meteohub,2013-10-08 02:17:00,
2013-10-07 22:22:00,54.5,52.5,29.91,WSW,243,2.0,-999.9,93,-99.99,,,0.26,0.0,meteohub,2013-10-08 02:22:00,
2013-10-07 22:27:00,54.3,52.3,29.91,WSW,243,0.0,-999.9,93,-99.99,,,0.26,0.0,meteohub,2013-10-08 02:27:00,
2013-10-07 22:32:00,54.1,52.2,29.92,WSW,243,0.0,-999.9,93,-99.99,,,0.26,0.0,meteohub,2013-10-08 02:32:00,
2013-10-07 22:37:00,54.1,52.2,29.92,WSW,240,0.0,-999.9,93,-99.99,,,0.26,0.0,meteohub,2013-10-08 02:37:00,
2013-10-07 22:42:00,54.0,52.0,29.92,WSW,240,0.0,-999.9,93,-99.99,,,0.26,0.0,meteohub,2013-10-08 02:42:00,
2013-10-07 22:47:00,54.0,52.0,29.92,WSW,240,0.0,-999.9,93,-99.99,,,0.00,0.0,meteohub,2013-10-08 02:47:00,
2013-10-07 22:53:00,53.8,51.8,29.92,West,269,0.0,-999.9,93,-99.99,,,0.26,0.0,meteohub,2013-10-08 02:53:00,
2013-10-07 22:58:00,53.8,51.8,29.92,West,269,0.0,-999.9,93,-99.99,,,0.00,0.0,meteohub,2013-10-08 02:58:00,
2013-10-07 23:03:00,53.6,51.6,29.93,West,269,0.0,-999.9,93,-99.99,,,0.00,0.0,meteohub,2013-10-08 03:03:00,
2013-10-07 23:09:00,53.4,51.4,29.93,West,269,0.0,-999.9,93,-99.99,,,0.26,0.0,meteohub,2013-10-08 03:09:00,
2013-10-07 23:14:00,53.2,51.3,29.94,West,269,0.0,-999.9,93,-99.99,,,0.26,0.0,meteohub,2013-10-08 03:14:00,
2013-10-07 23:19:00,53.1,51.1,29.94,West,269,0.0,-999.9,93,-99.99,,,0.00,0.0,meteohub,2013-10-08 03:19:00,
2013-10-07 23:24:00,52.9,50.9,29.94,West,269,0.0,-999.9,93,-99.99,,,0.00,0.0,meteohub,2013-10-08 03:24:00,
2013-10-07 23:30:00,52.7,50.7,29.94,West,269,0.0,-999.9,93,-99.99,,,0.00,0.0,meteohub,2013-10-08 03:30:00,
2013-10-07 23:35:00,52.5,50.5,29.95,West,269,0.0,-999.9,93,-99.99,,,0.00,0.0,meteohub,2013-10-08 03:35:00,
2013-10-07 23:40:00,52.5,50.5,29.95,West,269,0.0,-999.9,93,-99.99,,,0.00,0.0,meteohub,2013-10-08 03:40:00,
2013-10-07 23:45:00,52.3,50.4,29.94,West,269,0.0,-999.9,93,-99.99,,,0.00,0.0,meteohub,2013-10-08 03:45:00,
2013-10-07 23:51:00,52.2,50.2,29.94,West,269,0.0,-999.9,93,-99.99,,,0.00,0.0,meteohub,2013-10-08 03:51:00,
2013-10-07 23:56:00,52.0,50.0,29.95,West,269,0.0,-999.9,93,-99.99,,,0.00,0.0,meteohub,2013-10-08 03:56:00,